Location: Ammerl�gen
(47.2167°N, 9.6000°E)
Time: 04:18:22
(UTC+00:00)

Cosmos 2180 Rocket - Pass Details

Date: 21 April 2021
Orbit: 953 x 1005 km, 82.9° (Epoch: 16 May)

Event Time Altitude Azimuth Distance (km) Brightness Sun altitude
Rises 19:54:31 0° 186° (S) 3,639 7.2 -15.0°
Reaches altitude 10° 19:57:01 10° 186° (S) 2,691 6.5 -15.4°
Maximum altitude 20:03:10 88° 100° (E) 964 4.4 -16.2°
Drops below altitude 10° 20:09:21 10° 9° (N) 2,693 7.2 -17.0°
Sets 20:11:50 0° 10° (N) 3,642 8.0 -17.3°
